Location: Newark
(36.9704°N, 37.9978°E)
Time: 22:42:25
(UTC+00:00)

ISS - Visible Passes

Search period start: 15 July 2019 00:00
Search period end: 25 July 2019 00:00
Orbit: 409 x 418 km, 51.6° (Epoch: 16 July)

Date Brightness Start Highest point End Pass type
(mag) Time Alt. Az. Time Alt. Az. Time Alt. Az.
15 Jul -0.4 00:29:20 10° N 00:30:42 12° NNE 00:32:02 10° NE visible
15 Jul-0.618:53:04NE18:53:04NE18:43:58SWvisible
15 Jul -0.7 20:25:40 16° NNW 20:25:40 16° NNW 20:27:20 10° NNE visible
16 Jul -1.9 01:15:32 10° NNW 01:18:35 34° NE 01:21:38 10° ESE visible
16 Jul -3.2 17:55:51 10° SSW 17:58:56 35° SE 18:02:00 10° ENE visible
16 Jul -1.3 19:32:53 10° W 19:35:39 24° NNW 19:38:26 10° NNE visible
17 Jul -1.1 00:26:31 10° NNW 00:29:09 22° NNE 00:31:47 10° E visible
17 Jul -2.3 18:43:05 10° WSW 18:46:14 38° NW 18:49:23 10° NE visible
17 Jul -0.5 23:37:37 10° NNW 23:39:39 15° NNE 23:41:41 10° ENE visible
18 Jul -3.9 01:13:23 10° NW 01:16:42 82° SW 01:20:00 10° SE visible
18 Jul -3.5 17:53:33 10° SW 17:56:52 71° NW 18:00:13 10° NE visible
18 Jul -0.3 19:32:26 10° NW 19:34:04 13° NNW 19:35:41 10° N visible
18 Jul -0.2 22:49:02 10° N 22:50:04 11° NNE 22:51:07 10° NE visible
19 Jul -3.0 00:24:08 10° NW 00:27:22 51° NE 00:30:37 10° ESE visible
19 Jul -0.7 18:42:07 10° WNW 18:44:30 18° NNW 18:46:53 10° NNE visible
19 Jul -1.8 23:35:01 10° NNW 23:37:59 30° NNE 23:40:56 10° E visible
20 Jul -2.8 01:11:55 11° WNW 01:14:34 25° SW 01:17:19 10° S visible
20 Jul -1.4 17:52:06 10° W 17:55:00 27° NNW 17:57:54 10° NNE visible
21 Jul -0.2 18:42:12 10° NNW 18:42:55 10° NNW 18:43:37 10° N visible
22 Jul -0.6 17:51:24 10° WNW 17:53:17 14° NNW 17:55:09 10° N visible
